Location: Kendal
(54.3280°N, 2.7463°W)
Time: 00:56:49
(UTC+01:00)

Envisat - Visible Passes

Search period start: 18 May 2026 00:00
Search period end: 28 May 2026 00:00
Orbit: 761 x 762 km, 98.4° (Epoch: 17 May)

Date Brightness Start Highest point End Pass type
(mag) Time Alt. Az. Time Alt. Az. Time Alt. Az.
18 May 4.7 02:59:12 10° NE 03:03:30 27° E 03:07:46 10° SSE visible
19 May 5.4 02:22:31 10° NE 02:25:11 14° E 02:27:49 10° ESE visible
19 May 3.2 03:59:53 10° NNE 04:04:59 77° ESE 04:10:04 10° S visible
20 May 4.1 03:22:14 10° NNE 03:27:01 40° E 03:31:45 10° SSE visible
21 May 5.0 02:44:58 10° NE 02:48:49 21° E 02:52:38 10° SE visible
22 May 5.6 02:09:16 10° ENE 02:10:24 11° E 02:11:33 10° E visible
22 May 3.5 03:45:24 10° NNE 03:50:26 60° ESE 03:55:26 10° S visible
23 May 4.5 03:07:51 10° NNE 03:12:22 31° E 03:16:51 10° SSE visible
24 May 5.3 02:30:54 10° NE 02:34:06 17° E 02:37:17 10° SE visible
25 May 3.9 03:30:57 10° NNE 03:35:51 46° E 03:40:43 10° S visible
26 May 4.8 02:53:34 10° NE 02:57:42 25° E 03:01:49 10° SE visible
27 May 5.5 02:17:07 10° ENE 02:19:21 13° E 02:21:34 10° ESE visible
27 May 3.3 03:54:09 10° NNE 03:59:15 70° ESE 04:04:18 10° S visible
